Flag for Germany

Past Weather in Papenburg, Lower Saxony, Germany — Yesterday and Last 2 Weeks

Now
78 °F

Sunny.


Feels Like: 79 °F
Forecast: 90 / 62 °F
Wind: 2 mph from East

Location: Emden-Koenigspolder

Current Time: Aug 7, 2020 at 12:25:12 pm

Latest Report: Aug 7, 2020 at 10:00 am


Visibility: 28 mi

Pressure: 30.16 "Hg

Humidity: 50%

Dew Point: 58 °F

Location of PapenburgLocation

Past Weather in Papenburg — Graph

°F

Papenburg Temperature Yesterday

Maximum temperature yesterday: 85 °F (at 3:00 pm)
Minimum temperature yesterday: 59 °F (at 3:00 am)
Average temperature yesterday: 71 °F

High & Low Weather Summary for the Past Weeks

 TemperatureHumidityPressure
High85 °F (Aug 6, 3:00 pm)100% (Jul 31, 4:00 am)30.17 "Hg (Jul 31, 4:00 am)
Low50 °F (Aug 4, 3:00 am)29% (Aug 5, 3:00 pm)29.65 "Hg (Jul 26, 6:00 am)
Average64 °F73%29.95 "Hg
* Reported Jul 23 10:00 am — Aug 7 10:00 am, Papenburg. Weather by CustomWeather, © 2020

Note: Actual official high and low records may vary slightly from our data, if they occured in-between our weather recording intervals... More about our weather records

Papenburg Weather History for the Previous 24 Hours

Scroll right to see more
 ConditionsComfort  
Time TempWeatherWind HumidityBarometerVisibility
10:00 am
Fri, Aug 7
78 °FSunny.2 mph50%30.16 "Hg28 mi
9:00 am73 °FSunny.2 mph59%30.16 "Hg28 mi
7:00 am59 °FSunny.2 mph91%30.15 "Hg5 mi
6:00 am57 °FSunny.1 mph96%30.14 "Hg5 mi
4:00 am58 °FClear.2 mph90%30.14 "Hg17 mi
3:00 am60 °FClear.1 mph92%30.15 "Hg22 mi
1:00 am62 °FClear.2 mph82%30.15 "Hg22 mi
12:00 am63 °FClear.2 mph79%30.15 "Hg31 mi
10:00 pm
Thu, Aug 6
68 °FPassing clouds.2 mph69%30.14 "Hg13 mi
9:00 pm72 °FSunny.3 mph61%30.13 "Hg9 mi
7:00 pm79 °FSunny.6 mph50%30.11 "Hg8 mi
6:00 pm82 °FSunny.5 mph46%30.11 "Hg12 mi
4:00 pm84 °FPassing clouds.2 mph40%30.11 "Hg22 mi
3:00 pm85 °FSunny.3 mph33%30.11 "Hg22 mi
1:00 pm82 °FOvercast.3 mph35%30.11 "Hg22 mi
12:00 pm79 °FSunny.3 mph43%30.10 "Hg22 mi
Weather by CustomWeather, © 2020

See weather overview